Location: Dresden
(51.0500°N, 13.7500°E)
Time: 06:16:30
(UTC+00:00)

ISS - Pass Details

Date: 30 March 2019
Orbit: 408 x 410 km, 51.6° (Epoch: 22 April)

Event Time Altitude Azimuth Distance (km) Brightness Sun altitude
Rises 19:50:45 0° 282° (WNW) 2,340 1.2 -20.7°
Reaches altitude 10° 19:52:51 10° 281° (W) 1,476 -0.1 -20.9°
Enters shadow 19:55:36 57° 261° (W) 487 -3.3 -21.3°
